Time,TemperatureF,DewpointF,PressureIn,WindDirection,WindDirectionDegrees,WindSpeedMPH,WindSpeedGustMPH,Humidity,HourlyPrecipIn,Conditions,Clouds,dailyrainin,SoftwareType,DateUTC
2013-03-25 00:01:00,44.3,34.0,30.33,NNE,27,0.0,3.0,67,0.00,,,0.00,weatherlink.com 1.10,2013-03-25 07:01:00,
2013-03-25 00:16:00,44.1,34.0,30.33,WSW,253,0.0,1.0,69,0.00,,,0.00,weatherlink.com 1.10,2013-03-25 07:16:00,
2013-03-25 01:16:00,44.2,37.0,30.31,NE,47,4.0,4.0,77,0.00,,,0.00,weatherlink.com 1.10,2013-03-25 08:16:00,
2013-03-25 01:46:00,44.1,36.0,30.31,NE,40,2.0,9.0,74,0.00,,,0.00,weatherlink.com 1.10,2013-03-25 08:46:00,
2013-03-25 02:31:00,43.5,35.0,30.30,ENE,61,1.0,3.0,73,0.00,,,0.00,weatherlink.com 1.10,2013-03-25 09:31:00,
2013-03-25 02:46:00,43.5,37.0,30.31,ENE,75,0.0,2.0,79,0.00,,,0.00,weatherlink.com 1.10,2013-03-25 09:46:00,
2013-03-25 03:16:00,42.7,38.0,30.30,ENE,77,0.0,4.0,84,0.00,,,0.00,weatherlink.com 1.10,2013-03-25 10:16:00,
2013-03-25 03:31:00,42.9,38.0,30.30,NE,46,2.0,2.0,83,0.00,,,0.00,weatherlink.com 1.10,2013-03-25 10:31:00,
2013-03-25 03:46:00,43.0,39.0,30.30,East,79,3.0,3.0,85,0.00,,,0.00,weatherlink.com 1.10,2013-03-25 10:46:00,
2013-03-25 04:01:00,43.2,39.0,30.30,East,90,1.0,3.0,84,0.00,,,0.00,weatherlink.com 1.10,2013-03-25 11:01:00,
2013-03-25 04:16:00,43.4,38.0,30.29,NE,50,3.0,3.0,82,0.00,,,0.00,weatherlink.com 1.10,2013-03-25 11:16:00,
2013-03-25 04:46:00,43.0,37.0,30.29,ENE,66,6.0,6.0,80,0.00,,,0.00,weatherlink.com 1.10,2013-03-25 11:46:00,
2013-03-25 05:16:00,42.5,38.0,30.29,ENE,78,6.0,8.0,84,0.00,,,0.00,weatherlink.com 1.10,2013-03-25 12:16:00,
2013-03-25 05:31:00,42.2,38.0,30.29,East,97,6.0,8.0,84,0.00,,,0.00,weatherlink.com 1.10,2013-03-25 12:31:00,
2013-03-25 05:46:00,41.9,37.0,30.29,NE,51,3.0,6.0,84,0.00,,,0.00,weatherlink.com 1.10,2013-03-25 12:46:00,
2013-03-25 06:01:00,41.6,37.0,30.29,NNW,348,0.0,2.0,85,0.00,,,0.00,weatherlink.com 1.10,2013-03-25 13:01:00,
2013-03-25 06:16:00,41.2,37.0,30.29,NE,37,0.0,2.0,86,0.00,,,0.00,weatherlink.com 1.10,2013-03-25 13:16:00,
2013-03-25 06:31:00,41.3,37.0,30.29,NNE,27,4.0,4.0,86,0.00,,,0.00,weatherlink.com 1.10,2013-03-25 13:31:00,
2013-03-25 06:46:00,41.4,37.0,30.29,NNE,30,5.0,6.0,85,0.00,,,0.00,weatherlink.com 1.10,2013-03-25 13:46:00,
2013-03-25 07:01:00,41.2,37.0,30.29,NNE,25,4.0,6.0,85,0.00,,,0.00,weatherlink.com 1.10,2013-03-25 14:01:00,
2013-03-25 07:16:00,41.2,36.0,30.29,NNE,25,3.0,6.0,83,0.00,,,0.00,weatherlink.com 1.10,2013-03-25 14:16:00,
2013-03-25 07:31:00,41.2,36.0,30.29,NE,47,6.0,7.0,81,0.00,,,0.00,weatherlink.com 1.10,2013-03-25 14:31:00,
2013-03-25 07:46:00,41.6,35.0,30.29,NE,37,3.0,6.0,78,0.00,,,0.00,weatherlink.com 1.10,2013-03-25 14:46:00,
2013-03-25 08:01:00,42.5,36.0,30.29,NNE,30,1.0,5.0,78,0.00,,,0.00,weatherlink.com 1.10,2013-03-25 15:01:00,
2013-03-25 08:16:00,42.9,36.0,30.29,NE,37,4.0,7.0,78,0.00,,,0.00,weatherlink.com 1.10,2013-03-25 15:16:00,
2013-03-25 08:31:00,43.3,37.0,30.28,ENE,72,2.0,6.0,79,0.00,,,0.00,weatherlink.com 1.10,2013-03-25 15:31:00,
2013-03-25 08:47:00,42.9,37.0,30.28,NE,53,3.0,5.0,81,0.00,,,0.00,weatherlink.com 1.10,2013-03-25 15:47:00,
2013-03-25 09:02:00,44.0,39.0,30.28,NNE,32,4.0,5.0,81,0.00,,,0.00,weatherlink.com 1.10,2013-03-25 16:02:00,
2013-03-25 09:17:00,44.9,39.0,30.28,NE,43,4.0,6.0,80,0.00,,,0.00,weatherlink.com 1.10,2013-03-25 16:17:00,
2013-03-25 09:32:00,45.4,39.0,30.27,East,86,3.0,6.0,77,0.00,,,0.00,weatherlink.com 1.10,2013-03-25 16:32:00,
2013-03-25 09:47:00,46.3,38.0,30.27,NE,35,3.0,5.0,74,0.00,,,0.00,weatherlink.com 1.10,2013-03-25 16:47:00,
2013-03-25 10:02:00,45.7,38.0,30.27,NNE,15,1.0,6.0,74,0.00,,,0.00,weatherlink.com 1.10,2013-03-25 17:02:00,
2013-03-25 10:17:00,46.0,38.0,30.27,WNW,302,4.0,6.0,73,0.00,,,0.00,weatherlink.com 1.10,2013-03-25 17:17:00,
2013-03-25 10:32:00,46.0,38.0,30.26,North,354,4.0,5.0,74,0.00,,,0.00,weatherlink.com 1.10,2013-03-25 17:32:00,
2013-03-25 10:47:00,45.8,38.0,30.26,North,1,4.0,7.0,74,0.00,,,0.00,weatherlink.com 1.10,2013-03-25 17:47:00,
2013-03-25 11:02:00,45.9,38.0,30.26,NW,322,6.0,8.0,75,0.00,,,0.00,weatherlink.com 1.10,2013-03-25 18:02:00,
2013-03-25 11:17:00,46.1,39.0,30.25,NNW,341,4.0,7.0,75,0.00,,,0.00,weatherlink.com 1.10,2013-03-25 18:17:00,
2013-03-25 11:32:00,45.9,38.0,30.25,ESE,104,2.0,7.0,74,0.00,,,0.00,weatherlink.com 1.10,2013-03-25 18:32:00,
2013-03-25 11:47:00,46.0,38.0,30.25,North,358,6.0,7.0,74,0.00,,,0.00,weatherlink.com 1.10,2013-03-25 18:47:00,
2013-03-25 12:02:00,46.3,39.0,30.25,NW,309,4.0,9.0,75,0.00,,,0.00,weatherlink.com 1.10,2013-03-25 19:02:00,
2013-03-25 12:17:00,46.5,38.0,30.24,NNE,18,6.0,8.0,72,0.00,,,0.00,weatherlink.com 1.10,2013-03-25 19:17:00,
2013-03-25 12:32:00,47.4,37.0,30.24,NNW,335,5.0,8.0,68,0.00,,,0.00,weatherlink.com 1.10,2013-03-25 19:32:00,
2013-03-25 12:47:00,47.7,38.0,30.24,NNE,25,4.0,8.0,68,0.00,,,0.00,weatherlink.com 1.10,2013-03-25 19:47:00,
2013-03-25 13:02:00,48.3,37.0,30.23,North,8,5.0,6.0,66,0.00,,,0.00,weatherlink.com 1.10,2013-03-25 20:02:00,
2013-03-25 13:17:00,48.2,36.0,30.23,NNE,25,2.0,7.0,64,0.00,,,0.00,weatherlink.com 1.10,2013-03-25 20:17:00,
2013-03-25 13:32:00,48.9,37.0,30.22,North,356,5.0,6.0,63,0.00,,,0.00,weatherlink.com 1.10,2013-03-25 20:32:00,
2013-03-25 13:47:00,49.0,37.0,30.22,NW,325,3.0,6.0,63,0.00,,,0.00,weatherlink.com 1.10,2013-03-25 20:47:00,
2013-03-25 14:02:00,48.8,37.0,30.21,NNE,19,2.0,6.0,65,0.00,,,0.00,weatherlink.com 1.10,2013-03-25 21:02:00,
2013-03-25 14:17:00,49.5,38.0,30.20,NNW,336,4.0,6.0,64,0.00,,,0.00,weatherlink.com 1.10,2013-03-25 21:17:00,
2013-03-25 14:33:00,49.4,38.0,30.20,NNW,339,3.0,6.0,66,0.00,,,0.00,weatherlink.com 1.10,2013-03-25 21:33:00,
2013-03-25 14:48:00,49.6,40.0,30.19,NNW,339,1.0,5.0,70,0.00,,,0.00,weatherlink.com 1.10,2013-03-25 21:48:00,
2013-03-25 15:03:00,49.1,37.0,30.19,NW,320,5.0,7.0,64,0.00,,,0.00,weatherlink.com 1.10,2013-03-25 22:03:00,
2013-03-25 15:18:00,49.1,38.0,30.18,North,9,3.0,6.0,65,0.00,,,0.00,weatherlink.com 1.10,2013-03-25 22:18:00,
2013-03-25 15:33:00,49.5,39.0,30.18,NW,320,6.0,6.0,67,0.00,,,0.00,weatherlink.com 1.10,2013-03-25 22:33:00,
2013-03-25 15:48:00,49.2,40.0,30.17,NW,326,4.0,8.0,71,0.00,,,0.00,weatherlink.com 1.10,2013-03-25 22:48:00,
2013-03-25 16:03:00,49.4,40.0,30.16,NNW,339,5.0,7.0,70,0.00,,,0.00,weatherlink.com 1.10,2013-03-25 23:03:00,
2013-03-25 16:18:00,49.7,39.0,30.16,NW,326,3.0,6.0,68,0.00,,,0.00,weatherlink.com 1.10,2013-03-25 23:18:00,
2013-03-25 16:33:00,50.1,39.0,30.16,NNW,345,2.0,5.0,66,0.00,,,0.00,weatherlink.com 1.10,2013-03-25 23:33:00,
2013-03-25 16:48:00,50.6,38.0,30.15,NNW,329,2.0,5.0,63,0.00,,,0.00,weatherlink.com 1.10,2013-03-25 23:48:00,
2013-03-25 17:03:00,50.8,38.0,30.15,North,11,3.0,4.0,61,0.00,,,0.00,weatherlink.com 1.10,2013-03-26 00:03:00,
2013-03-25 17:18:00,52.2,37.0,30.14,NW,314,2.0,4.0,57,0.00,,,0.00,weatherlink.com 1.10,2013-03-26 00:18:00,
2013-03-25 17:33:00,53.7,37.0,30.14,West,275,0.0,3.0,54,0.00,,,0.00,weatherlink.com 1.10,2013-03-26 00:33:00,
2013-03-25 17:48:00,54.2,39.0,30.14,WSW,242,0.0,1.0,57,0.00,,,0.00,weatherlink.com 1.10,2013-03-26 00:48:00,
2013-03-25 18:03:00,53.6,37.0,30.13,ESE,119,0.0,2.0,54,0.00,,,0.00,weatherlink.com 1.10,2013-03-26 01:03:00,
2013-03-25 18:18:00,52.5,38.0,30.13,ESE,118,0.0,1.0,58,0.00,,,0.00,weatherlink.com 1.10,2013-03-26 01:18:00,
2013-03-25 18:33:00,53.7,39.0,30.13,ESE,120,0.0,0.0,57,0.00,,,0.00,weatherlink.com 1.10,2013-03-26 01:33:00,
2013-03-25 18:48:00,52.7,36.0,30.13,ESE,120,0.0,0.0,54,0.00,,,0.00,weatherlink.com 1.10,2013-03-26 01:48:00,
2013-03-25 19:03:00,51.4,33.0,30.13,North,8,0.0,0.0,50,0.00,,,0.00,weatherlink.com 1.10,2013-03-26 02:03:00,
2013-03-25 19:18:00,50.8,33.0,30.13,NNE,18,4.0,4.0,51,0.00,,,0.00,weatherlink.com 1.10,2013-03-26 02:18:00,
2013-03-25 19:33:00,49.5,35.0,30.13,NNE,30,6.0,6.0,57,0.00,,,0.00,weatherlink.com 1.10,2013-03-26 02:33:00,
2013-03-25 19:48:00,48.8,35.0,30.14,NE,36,4.0,6.0,60,0.00,,,0.00,weatherlink.com 1.10,2013-03-26 02:48:00,
2013-03-25 20:03:00,46.9,36.0,30.14,NNE,25,6.0,7.0,66,0.00,,,0.00,weatherlink.com 1.10,2013-03-26 03:03:00,
2013-03-25 20:19:00,46.8,36.0,30.14,NNE,30,7.0,8.0,67,0.00,,,0.00,weatherlink.com 1.10,2013-03-26 03:19:00,
2013-03-25 20:33:00,46.9,34.0,30.14,NE,37,7.0,7.0,62,0.00,,,0.00,weatherlink.com 1.10,2013-03-26 03:33:00,
2013-03-25 20:48:00,47.3,34.0,30.14,NNE,26,2.0,8.0,60,0.00,,,0.00,weatherlink.com 1.10,2013-03-26 03:48:00,
2013-03-25 21:03:00,46.9,36.0,30.15,North,11,5.0,7.0,67,0.00,,,0.00,weatherlink.com 1.10,2013-03-26 04:03:00,
2013-03-25 21:18:00,46.7,37.0,30.15,North,353,3.0,4.0,68,0.00,,,0.00,weatherlink.com 1.10,2013-03-26 04:18:00,
2013-03-25 21:33:00,46.4,37.0,30.15,North,349,2.0,4.0,69,0.00,,,0.00,weatherlink.com 1.10,2013-03-26 04:33:00,
2013-03-25 21:48:00,46.1,37.0,30.15,North,11,2.0,3.0,70,0.00,,,0.00,weatherlink.com 1.10,2013-03-26 04:48:00,
2013-03-25 22:03:00,46.3,37.0,30.16,NNE,32,3.0,4.0,71,0.00,,,0.00,weatherlink.com 1.10,2013-03-26 05:03:00,
2013-03-25 22:18:00,46.3,35.0,30.16,NE,34,1.0,1.0,64,0.00,,,0.00,weatherlink.com 1.10,2013-03-26 05:18:00,
2013-03-25 22:33:00,46.9,33.0,30.16,NNE,30,2.0,4.0,58,0.00,,,0.00,weatherlink.com 1.10,2013-03-26 05:33:00,
2013-03-25 22:48:00,47.1,33.0,30.16,NNE,25,4.0,5.0,58,0.00,,,0.00,weatherlink.com 1.10,2013-03-26 05:48:00,
2013-03-25 23:03:00,46.9,33.0,30.17,North,11,3.0,3.0,59,0.00,,,0.00,weatherlink.com 1.10,2013-03-26 06:03:00,
2013-03-25 23:18:00,46.8,33.0,30.17,NNE,25,2.0,3.0,60,0.00,,,0.00,weatherlink.com 1.10,2013-03-26 06:18:00,
2013-03-25 23:33:00,47.0,34.0,30.17,NNE,28,0.0,1.0,60,0.00,,,0.00,weatherlink.com 1.10,2013-03-26 06:33:00,
2013-03-25 23:48:00,46.9,33.0,30.17,NNE,27,2.0,2.0,59,0.00,,,0.00,weatherlink.com 1.10,2013-03-26 06:48:00,